Regional Weather Roundup
Issued by NWS Cleveland, OH

Home | Current Version | Previous Version | Graphics & Text | Print | Product List | Glossary On
Versions: 1 2 3 4 5 6 7 8 9 10 11 12 13 14 15 16 17 18 19 20 21 22 23 24 25 26 27 28 29 30 31 32 33 34 35 36 37 38 39 40 41 42 43 44 45 46 47 48 49 50
000
ASUS41 KCLE 170300
RWRCLE
OHIO REGIONAL WEATHER ROUNDUP
NATIONAL WEATHER SERVICE WILMINGTON, OH
1100 PM EDT TUE SEP 16 2014

NOTE: "FAIR" INDICATES FEW OR NO CLOUDS BELOW 12,000 FEET WITH NO
SIGNIFICANT WEATHER AND/OR OBSTRUCTIONS TO VISIBILITY.

OHZ001>008-015>018-024>027-034-035-043-044-170400-
   NORTHWEST OHIO

CITY           SKY/WX    TMP DP  RH WIND       PRES   REMARKS
DEFIANCE       CLEAR     50  46  86 CALM      30.10S
FINDLAY        CLEAR     52  47  83 SW5       30.09S
TOLEDO EXPRESS CLEAR     49  46  90 CALM      30.08S
TOLEDO METCALF CLEAR     52  46  80 CALM      30.09S
LIMA           CLEAR     52  47  83 SW3       30.10F
$$

OHZ009>014-019>023-028>033-038-089-170400-
   NORTHEAST OHIO

CITY           SKY/WX    TMP DP  RH WIND       PRES   REMARKS
CLE-HOPKINS    CLEAR     51  48  89 CALM      30.11S
CLE-LAKEFRONT  CLEAR     60  46  59 NW8       30.08S
CUY CO. ARPT   PTCLDY    50  50 100 CALM      30.09F
LORAIN-ELYRIA  CLEAR     53  47  79 CALM      30.10S
ASHTABULA      CLEAR     48  45  89 CALM      30.10S
AKRON-CANTON   PTCLDY    54  48  80 N5        30.10S
WOOSTER        NOT AVBL
MANSFIELD      CLEAR     50  49  96 CALM      30.10F
YOUNGSTOWN     PTCLDY    50  48  93 CALM      30.09S
$$

OHZ042-051>053-060>062-070>072-077>081-170400-
  SOUTHWEST OHIO

CITY           SKY/WX    TMP DP  RH WIND       PRES   REMARKS
CINC-COVINGTON CLOUDY    58  51  78 N3        30.11S
CINC-LUNKEN    CLOUDY    58  52  80 NE5       30.12S
HAMILTON       CLOUDY    58  54  86 CALM      30.12S
DAYTON         NOT AVBL
WRIGHT-PAT AFB CLEAR     51  47  87 CALM      30.11S
DAYTON GENERAL MOCLDY    57  50  77 CALM      30.10F
WILMINGTON     PTCLDY    55  47  74 N3        30.11S
$$

OHZ036-037-039>041-045>050-054>059-063>069-073>076-082>088-170400-
  CENTRAL AND SOUTHEAST OHIO

CITY           SKY/WX    TMP DP  RH WIND       PRES   REMARKS
COLUMBUS       CLEAR     55  48  77 N3        30.09S
OSU AIRPORT    CLEAR     50  46  86 W6        30.10S
BOLTON FIELD   NOT AVBL
RICKENBACK AFB NOT AVBL
NEWARK         FOG       48  46  93 CALM      30.09F VSB 3/4
MARION         CLEAR     50  46  86 W3        30.10S
LANCASTER      CLEAR     47  45  93 CALM      30.10S FOG
ZANESVILLE     CLEAR     53  48  83 CALM      30.09S
NEW PHILLY     CLEAR     52  51  97 CALM      30.10S FOG
$$



USA.gov is the U.S. government's official web portal to all federal, state and local government web resources and services.